Find Starlink 3320

NORAD ID: 50839 Int'l Des: 2022-001 Owner: SPXS Country: US Constellation: starlink operational
LEOCIRCULAR

現在のビュー

3D地球を読み込み中...

About Starlink 3320

Starlink 3320 (NORAD 50839) is a starlink constellation satellite (v1.5) launched Jan 6, 2022 by SPXS of US. It operates in LEO, CIRCULAR orbit with a mass of 297.00 kg.

次回通過

Passes for default location (London). Set your location on the main map for personalized predictions.

高度履歴

Loading altitude history...

軌道要素

1 50839U 22001AN 26255.12993758 -.00003780 00000-0 -11004-3 0 9993
2 50839 53.1600 48.7300 0001092 102.4717 257.6407 15.31714023258584
Epoch: Sep 12, 2026 • Age: 16 hours

現在のステータス

高度 471.9 km
遠地点 / 近地点 N/A
速度 7.63 km/s
衛星直下点 -0.48°S, 131.91°E
打ち上げ日 Jan 6, 2022
運用期間 4.6 years
タイプ internet

技術仕様

分類 Payload
質量 297.00 kg
乾燥質量 275.00 kg
総質量 297.00 kg
長さ 0.20 m
直径 2.80 m
スパン 9.00 m
形状 Box + pan
製造者 SPXS
バスタイプ Starlink
フェーズステータス In Orbit
所有者/国 SPXS/US

Most Searched